Year,Month,Day,Hour,Minute,Value (Times are PST for temperature in C)
2007,06,15,07,20,10.10
2007,06,15,07,21,10.10
2007,06,15,07,22,10.10
2007,06,15,07,23,10.10
2007,06,15,07,24,10.10
2007,06,15,07,25,10.10
2007,06,15,07,26,10.10
2007,06,15,07,27,10.10
2007,06,15,07,28,10.10
2007,06,15,07,29,10.20
2007,06,15,07,30,10.20
2007,06,15,07,31,10.20
2007,06,15,07,32,10.20
2007,06,15,07,33,10.20
2007,06,15,07,34,10.20
2007,06,15,07,35,10.20
2007,06,15,07,36,10.20
2007,06,15,07,37,10.20
2007,06,15,07,38,10.20
2007,06,15,07,39,10.20
2007,06,15,07,40,10.30
2007,06,15,07,41,10.30
2007,06,15,07,42,10.30
2007,06,15,07,43,10.30
2007,06,15,07,44,10.30
2007,06,15,07,45,10.30
2007,06,15,07,46,10.30
2007,06,15,07,47,10.40
2007,06,15,07,48,10.40
2007,06,15,07,49,10.40
2007,06,15,07,50,10.40
2007,06,15,07,51,10.40
2007,06,15,07,52,10.40
2007,06,15,07,53,10.40
2007,06,15,07,54,10.40
2007,06,15,07,55,10.40
2007,06,15,07,56,10.40
2007,06,15,07,57,10.40
2007,06,15,07,58,10.40
2007,06,15,07,59,10.40
2007,06,15,08,00,10.40
2007,06,15,08,01,10.40
2007,06,15,08,02,10.40
2007,06,15,15,06,16.60
2007,06,15,15,07,16.60
2007,06,15,15,08,16.70
2007,06,15,15,09,16.70
2007,06,15,15,10,16.80
2007,06,15,15,11,16.90
2007,06,15,15,12,17.00
2007,06,15,15,13,17.00
2007,06,15,15,14,16.90
2007,06,15,15,15,16.90
2007,06,15,15,16,16.90
2007,06,15,15,17,17.00
2007,06,15,15,18,16.90
2007,06,15,15,19,16.90
2007,06,15,15,20,16.90
2007,06,15,15,21,16.90
2007,06,15,15,22,16.90
2007,06,15,15,23,16.90
2007,06,15,15,24,17.00
2007,06,15,15,25,17.00
2007,06,15,15,26,17.10
2007,06,15,15,27,17.10
2007,06,15,15,28,17.20
2007,06,15,15,29,17.20
2007,06,15,15,30,17.30
2007,06,15,15,31,17.30
2007,06,15,15,32,17.30
2007,06,15,15,33,17.30
2007,06,15,15,34,17.20
2007,06,15,15,35,17.20
2007,06,15,15,36,17.10
2007,06,15,15,37,17.00
2007,06,15,15,38,16.90
2007,06,15,15,39,16.60
2007,06,15,15,40,16.50
2007,06,15,15,41,16.50
2007,06,15,15,42,16.40
2007,06,15,15,43,16.40
2007,06,15,15,44,16.50
2007,06,15,15,45,16.60
2007,06,15,15,46,16.60
2007,06,15,15,47,16.70
2007,06,15,15,48,16.60
2007,06,15,15,49,16.60
2007,06,15,15,50,16.60
2007,06,15,15,51,16.50
2007,06,15,15,52,16.40
2007,06,15,15,53,16.40
2007,06,15,15,54,16.30
2007,06,15,15,55,16.30
2007,06,15,15,56,16.30
2007,06,15,15,57,16.30
2007,06,15,15,58,16.20
2007,06,15,15,59,16.20
2007,06,15,16,00,16.20
2007,06,15,16,01,16.20
2007,06,15,16,02,16.20
2007,06,15,16,03,16.10
2007,06,15,16,04,16.10
2007,06,15,16,05,16.10
2007,06,15,16,06,16.00
2007,06,15,16,07,15.90
2007,06,15,16,08,15.90
2007,06,15,16,09,15.90
2007,06,15,16,10,15.80
2007,06,15,16,11,15.80
2007,06,15,16,12,15.80
2007,06,15,16,13,15.90
2007,06,15,16,14,15.80
2007,06,15,16,15,15.80
2007,06,15,16,16,15.80
2007,06,15,16,17,15.80
2007,06,15,16,18,15.90
2007,06,15,16,19,15.90
2007,06,15,16,20,15.90
2007,06,15,16,21,16.00
2007,06,15,16,22,16.00
2007,06,15,16,23,16.00
2007,06,15,16,24,16.00
2007,06,15,16,25,16.00
2007,06,15,16,26,16.00
2007,06,15,16,27,15.90
2007,06,15,16,28,15.90
2007,06,15,16,29,15.90
2007,06,15,16,30,15.90
2007,06,15,16,31,15.90
2007,06,15,16,32,15.90
2007,06,15,16,33,15.90
2007,06,15,16,34,15.80
2007,06,15,16,35,15.80
2007,06,15,16,36,15.80
2007,06,15,16,37,15.90
2007,06,15,16,38,15.90
2007,06,15,16,39,15.90
2007,06,15,16,40,15.90
2007,06,15,16,41,15.90
2007,06,15,16,42,16.00
2007,06,15,16,43,16.00
2007,06,15,16,44,16.00
2007,06,15,16,45,16.00
2007,06,15,16,46,16.00
2007,06,15,16,47,16.00
2007,06,15,16,48,15.90
2007,06,15,16,49,15.90
2007,06,15,16,50,15.90
2007,06,15,16,51,15.90
2007,06,15,16,52,15.90
2007,06,15,16,53,15.90
2007,06,15,16,54,15.80
2007,06,15,16,55,15.80
2007,06,15,16,56,15.80
2007,06,15,16,57,15.80
2007,06,15,16,58,15.80
2007,06,15,16,59,15.80
2007,06,15,17,00,15.80
2007,06,15,17,01,15.80
2007,06,15,17,02,15.70
2007,06,15,17,03,15.70
2007,06,15,17,04,15.70
2007,06,15,17,05,15.70
2007,06,15,17,06,15.70
2007,06,15,17,07,15.80
2007,06,15,17,08,15.80
2007,06,15,17,09,15.80
2007,06,15,17,10,15.80
2007,06,15,17,11,15.80
2007,06,15,17,12,15.90
2007,06,15,17,13,15.90
2007,06,15,17,14,15.90
2007,06,15,17,15,15.90
2007,06,15,17,16,15.90
2007,06,15,17,17,15.90
2007,06,15,17,18,15.90
2007,06,15,17,19,15.90
2007,06,15,17,20,15.90
2007,06,15,17,21,15.90
2007,06,15,17,22,15.90
2007,06,15,17,23,15.80
2007,06,15,17,24,15.80
2007,06,15,17,25,15.80
2007,06,15,17,26,15.80
2007,06,15,17,27,15.80
2007,06,15,17,28,15.90
2007,06,15,17,29,15.90
2007,06,15,17,30,15.90
2007,06,15,17,31,16.00
2007,06,15,17,32,16.00
2007,06,15,17,33,16.10
2007,06,15,17,34,16.10
2007,06,15,17,35,16.20
2007,06,15,17,36,16.20
2007,06,15,17,37,16.20
2007,06,15,17,38,16.20
2007,06,15,17,39,16.10
2007,06,15,17,40,16.10
2007,06,15,17,41,16.20
2007,06,15,17,42,16.20
2007,06,15,17,43,16.20
2007,06,15,17,44,16.20
2007,06,15,17,45,16.20
2007,06,15,17,46,16.30
2007,06,15,17,47,16.30
2007,06,15,17,48,16.30
2007,06,15,17,49,16.40
2007,06,15,17,50,16.40
2007,06,15,17,51,16.40
2007,06,15,17,52,16.50
2007,06,15,17,53,16.50
2007,06,15,17,54,16.50
2007,06,15,17,55,16.60
2007,06,15,17,56,16.60
2007,06,15,17,57,16.60
2007,06,15,17,58,16.60
2007,06,15,17,59,16.60
2007,06,15,18,00,16.60
2007,06,15,18,01,16.60
2007,06,15,18,02,16.40
2007,06,15,18,03,16.30
2007,06,15,18,04,16.20
2007,06,15,18,05,16.20
2007,06,15,18,06,16.10
2007,06,15,18,07,16.00
2007,06,15,18,08,16.00
2007,06,15,18,09,16.00
2007,06,15,18,10,16.00
2007,06,15,18,11,16.00
2007,06,15,18,12,16.10
2007,06,15,18,13,16.10
2007,06,15,18,14,16.10
2007,06,15,18,15,16.20
2007,06,15,18,16,16.20
2007,06,15,18,17,16.20
2007,06,15,18,18,16.20
2007,06,15,18,19,16.20
2007,06,15,18,20,16.20
2007,06,15,18,21,16.30
2007,06,15,18,22,16.30
2007,06,15,18,23,16.30
2007,06,15,18,24,16.30
2007,06,15,18,25,16.30
2007,06,15,18,26,16.30
2007,06,15,18,27,16.20
2007,06,15,18,28,16.20
2007,06,15,18,29,16.20
2007,06,15,18,30,16.20
2007,06,15,18,31,16.20
2007,06,15,18,32,16.20
2007,06,15,18,33,16.10
2007,06,15,18,34,16.10
2007,06,15,18,35,16.10
2007,06,15,18,36,16.10
2007,06,15,18,37,16.00
2007,06,15,18,38,15.90
2007,06,15,18,39,15.90
2007,06,15,18,40,15.90
2007,06,15,18,41,15.80
2007,06,15,18,42,15.80
2007,06,15,18,43,15.80
2007,06,15,18,44,15.80
2007,06,15,18,45,15.80
2007,06,15,18,46,15.80
2007,06,15,18,47,15.70
2007,06,15,18,48,15.70
2007,06,15,18,49,15.60
2007,06,15,18,50,15.60
2007,06,15,18,51,15.60
2007,06,15,18,52,15.50
2007,06,15,18,53,15.50
2007,06,15,18,54,15.50
2007,06,15,18,55,15.40
2007,06,15,18,56,15.40
2007,06,15,18,57,15.30
2007,06,15,18,58,15.30
2007,06,15,18,59,15.30
2007,06,15,19,00,15.20
2007,06,15,19,01,15.20
2007,06,15,19,02,15.20
2007,06,15,19,03,15.20
2007,06,15,19,04,15.20
2007,06,15,19,05,15.20
2007,06,15,19,06,15.20
2007,06,15,19,07,15.20
2007,06,15,19,08,15.20
2007,06,15,19,09,15.10
2007,06,15,19,10,15.10
2007,06,15,19,11,15.10
2007,06,15,19,12,15.10
2007,06,15,19,13,15.10
2007,06,15,19,14,15.00
2007,06,15,19,15,15.00
2007,06,15,19,16,15.00
2007,06,15,19,17,15.00
2007,06,15,19,18,15.00
2007,06,15,19,19,15.00
2007,06,15,19,20,15.00
2007,06,15,19,21,15.00
2007,06,15,19,22,15.00
2007,06,15,19,23,15.00
2007,06,15,19,24,15.00
2007,06,15,19,25,15.00
2007,06,15,19,26,15.00
2007,06,15,19,27,15.00
2007,06,15,19,28,15.00
2007,06,15,19,29,15.00
2007,06,15,19,30,15.00
2007,06,15,19,31,14.90
2007,06,15,19,32,14.90
2007,06,15,19,33,14.90
2007,06,15,19,34,14.80
2007,06,15,19,35,14.80
2007,06,15,19,36,14.70
2007,06,15,19,37,14.70
2007,06,15,19,38,14.60
2007,06,15,19,39,14.60
2007,06,15,19,40,14.60
2007,06,15,19,41,14.60
2007,06,15,19,42,14.60
2007,06,15,19,43,14.50
2007,06,15,19,44,14.50
2007,06,15,19,45,14.50
2007,06,15,19,46,14.50
2007,06,15,19,47,14.50
2007,06,15,19,48,14.50
2007,06,15,19,49,14.50
2007,06,15,19,50,14.50
2007,06,15,19,51,14.40
2007,06,15,19,52,14.40
2007,06,15,19,53,14.40
2007,06,15,19,54,14.40
2007,06,15,19,55,14.40
2007,06,15,19,56,14.40
2007,06,15,19,57,14.40
2007,06,15,19,58,14.40
2007,06,15,19,59,14.30
2007,06,15,20,00,14.30
2007,06,15,20,01,14.30
2007,06,15,20,02,14.30
2007,06,15,20,03,14.30
2007,06,15,20,04,14.30
2007,06,15,20,05,14.30
2007,06,15,20,06,14.30
2007,06,15,20,07,14.30
2007,06,15,20,08,14.30
2007,06,15,20,09,14.30
2007,06,15,20,10,14.30
2007,06,15,20,11,14.30
2007,06,15,20,12,14.30
2007,06,15,20,13,14.30
2007,06,15,20,14,14.30
2007,06,15,20,15,14.30
2007,06,15,20,16,14.30
2007,06,15,20,17,14.30
2007,06,15,20,18,14.30
2007,06,15,20,19,14.30
2007,06,15,20,20,14.20
2007,06,15,20,21,14.30
2007,06,15,20,22,14.30
2007,06,15,20,23,14.30
2007,06,15,20,24,14.30
2007,06,15,20,25,14.30
2007,06,15,20,26,14.30
2007,06,15,20,27,14.30
2007,06,15,20,28,14.30
2007,06,15,20,29,14.40
2007,06,15,20,30,14.40
2007,06,15,20,31,14.40
2007,06,15,20,32,14.40
2007,06,15,20,33,14.40
2007,06,15,20,34,14.40
2007,06,15,20,35,14.30
2007,06,15,20,36,14.30
2007,06,15,20,37,14.30
2007,06,15,20,38,14.30
2007,06,15,20,39,14.30
2007,06,15,20,40,14.30
2007,06,15,20,41,14.30
2007,06,15,20,42,14.20
2007,06,15,20,43,14.20
2007,06,15,20,44,14.20
2007,06,15,20,45,14.20
2007,06,15,20,46,14.10
2007,06,15,20,47,14.10
2007,06,15,20,48,14.10
2007,06,15,20,49,14.10
2007,06,15,20,50,14.10
2007,06,15,20,51,14.00
2007,06,15,20,52,14.00
2007,06,15,20,53,14.00
2007,06,15,20,54,14.00
2007,06,15,20,55,14.00
2007,06,15,20,56,14.00
2007,06,15,20,57,14.00
2007,06,15,20,58,14.00
2007,06,15,20,59,14.00
2007,06,15,21,00,13.90
2007,06,15,21,01,13.90
2007,06,15,21,02,13.90
2007,06,15,21,03,13.90
2007,06,15,21,04,13.90
2007,06,15,21,05,13.90
2007,06,15,21,06,13.80
2007,06,15,21,07,13.80
2007,06,15,21,08,13.80
2007,06,15,21,09,13.80
2007,06,15,21,10,13.80
2007,06,15,21,11,13.70
2007,06,15,21,12,13.70
2007,06,15,21,13,13.60
2007,06,15,21,14,13.60
2007,06,15,21,15,13.60
2007,06,15,21,16,13.60
2007,06,15,21,17,13.50
2007,06,15,21,18,13.50
2007,06,15,21,19,13.50
2007,06,15,21,20,13.40
2007,06,15,21,21,13.40
2007,06,15,21,22,13.40
2007,06,15,21,23,13.40
2007,06,15,21,24,13.40
2007,06,15,21,25,13.30
2007,06,15,21,26,13.30
2007,06,15,21,27,13.30
2007,06,15,21,28,13.30
2007,06,15,21,29,13.30
2007,06,15,21,30,13.30
2007,06,15,21,31,13.20
2007,06,15,21,32,13.20
2007,06,15,21,33,13.20
2007,06,15,21,34,13.20
2007,06,15,21,35,13.10
2007,06,15,21,36,13.10
2007,06,15,21,37,13.10
2007,06,15,21,38,13.10
2007,06,15,21,39,13.10
2007,06,15,21,40,13.10
2007,06,15,21,41,13.00
2007,06,15,21,42,13.00
2007,06,15,21,43,13.00
2007,06,15,21,44,13.00
2007,06,15,21,45,12.90
2007,06,15,21,46,12.90
2007,06,15,21,47,12.90
2007,06,15,21,48,12.90
2007,06,15,21,49,12.90
2007,06,15,21,50,12.90
2007,06,15,21,51,12.90
2007,06,15,21,52,12.80
2007,06,15,21,53,12.80
2007,06,15,21,54,12.80
2007,06,15,21,55,12.80
2007,06,15,21,56,12.80
2007,06,15,21,57,12.80
2007,06,15,21,58,12.80
2007,06,15,21,59,12.70
2007,06,15,22,00,12.70
2007,06,15,22,01,12.70
2007,06,15,22,02,12.70
2007,06,15,22,03,12.60
2007,06,15,22,04,12.50
2007,06,15,22,05,12.50
2007,06,15,22,06,12.50
2007,06,15,22,07,12.50
2007,06,15,22,08,12.50
2007,06,15,22,09,12.50
2007,06,15,22,10,12.50
2007,06,15,22,11,12.50
2007,06,15,22,12,12.50
2007,06,15,22,13,12.50
2007,06,15,22,14,12.50
